Temperature
26 27 28 28 28 29 29 28 28 29 28 28 28 27 27 26 25 25 24 23 22 21 20 19 19 18 18 18 18 18 17 17 17 16 16 16 16 15 15 15 15 15 15 15
27 27 28 29 28 28 28 28 28 28 28 27 27 27 27 26 25 24 24 23 22 21 20 19 19 18 18 18 18 17 17 17 17 16 16 16 15 15 15 15 15 15 15 15
27 28 28 28 28 27 28 28 28 28 27 27 27 27 27 26 25 24 23 23 22 21 21 19 19 18 18 18 18 17 17 17 17 16 16 15 15 15 15 15 15 15 15 14
27 28 28 27 28 28 27 28 28 27 27 27 27 27 27 26 25 25 24 23 22 21 21 20 19 18 18 18 17 17 17 17 16 16 15 15 15 15 15 14 14 14 14 14
27 28 27 27 28 28 28 28 27 27 27 27 27 26 27 26 26 25 24 23 22 21 21 20 19 18 18 17 17 17 17 16 16 16 15 15 15 14 14 14 14 14 14 14
28 28 28 28 28 28 28 27 27 27 27 26 27 26 26 27 26 26 25 23 22 21 21 20 19 18 18 17 17 17 16 16 16 16 15 15 14 14 14 14 14 14 14 14
27 27 28 28 27 27 27 27 26 26 26 26 27 26 26 26 26 25 25 23 22 21 21 20 19 19 18 17 17 16 16 16 15 15 15 14 14 14 14 14 14 13 14 13
26 27 28 28 27 27 27 27 26 25 26 27 27 26 26 26 25 24 23 23 22 21 20 20 19 18 18 17 17 16 16 16 15 15 15 14 14 14 14 13 13 13 13 13
27 27 28 28 28 28 27 27 28 27 26 26 27 26 26 25 24 24 23 22 22 21 20 20 19 18 17 17 16 16 16 15 15 14 14 14 14 14 13 13 13 13 13 13
27 26 27 27 28 27 28 28 27 26 25 25 26 26 26 25 25 24 24 23 22 21 20 19 19 18 17 17 16 15 15 15 15 14 14 14 13 13 13 13 13 13 13 13
27 26 26 27 26 27 26 26 26 26 26 25 25 26 26 26 25 24 24 22 22 21 20 19 18 17 17 16 16 15 15 14 14 14 14 13 13 13 13 13 13 13 13 13
26 26 26 27 27 27 27 27 26 25 25 25 25 25 25 25 24 23 23 22 21 20 19 18 18 17 16 16 15 15 14 14 14 14 13 13 13 13 13 13 13 13 13 13
25 24 24 25 26 26 26 26 26 26 25 25 25 25 24 24 23 22 22 21 20 19 19 18 17 17 16 15 15 14 14 14 14 13 13 13 13 13 13 13 13 12 12 12
24 24 25 25 26 26 26 26 26 25 25 25 25 25 25 24 24 23 21 20 19 18 18 17 17 16 15 15 14 14 14 14 13 13 13 13 13 13 13 12 12 12 12 12
24 24 25 26 26 26 26 26 26 25 25 25 25 25 25 24 24 22 21 20 19 18 17 17 16 15 15 14 14 14 13 13 13 13 13 13 13 12 12 12 12 12 12 12
23 24 24 25 26 26 25 26 25 25 25 25 25 25 25 24 22 21 20 19 18 18 17 16 16 15 14 14 14 13 13 13 13 13 12 13 12 12 12 12 12 12 12 12
23 23 23 24 25 25 24 25 25 25 25 25 25 25 24 23 22 21 20 19 18 17 17 16 15 14 14 14 13 13 13 13 13 13 13 12 12 12 12 12 12 11 11 11
22 22 23 24 24 23 25 26 25 25 25 25 24 24 23 22 20 19 19 18 18 17 16 16 15 14 14 13 13 13 13 13 13 13 13 12 12 12 12 12 11 11 11 11
22 22 23 23 23 24 25 24 24 24 24 24 23 23 22 20 20 19 18 17 17 16 16 15 14 14 13 13 13 13 13 13 13 13 12 12 12 12 12 11 11 11 11 11
21 21 22 23 22 22 24 24 23 23 22 22 22 21 21 20 21 20 17 16 16 15 15 15 14 14 13 13 13 13 13 13 13 12 12 12 12 12 11 11 11 11 11 11
22 21 22 22 22 23 23 22 22 22 22 21 20 20 19 20 20 18 16 16 15 15 14 14 14 14 13 13 13 13 13 13 12 12 12 12 12 11 11 11 11 11 11 11
22 22 22 22 22 22 21 21 22 20 19 19 19 19 18 18 17 16 16 15 15 14 14 14 14 13 13 13 13 13 12 12 12 12 12 12 11 11 12 11 11 11 11 11
22 21 22 22 21 20 19 19 19 18 18 18 18 17 17 17 16 16 15 15 14 14 14 13 13 13 13 13 12 12 12 12 12 11 11 11 11 11 11 11 11 11 11 11
21 20 20 20 20 20 19 18 18 17 17 17 17 16 16 16 16 15 15 14 14 14 14 13 13 13 13 12 12 12 12 12 11 11 11 11 11 11 11 11 11 11 11 11
19 19 20 19 19 19 18 17 17 16 16 16 16 16 16 16 15 15 14 14 14 13 13 13 13 13 12 12 12 12 12 12 11 11 11 11 11 11 11 11 11 11 11 11
18 18 18 19 18 18 17 16 16 16 15 15 15 15 15 15 15 15 14 14 13 13 13 13 13 12 12 12 12 12 12 11 11 11 11 11 11 11 11 11 11 11 11 10
Wind_Speed
8 10 12 10 11 11 11 12 12 9 6 8 10 9 7 5 6 7 7 8 8 7 6 6 6 6 5 5 5 6 6 5 4 3 4 4 4 4 4 3 4 4 4 4
9 13 12 10 10 11 12 13 12 8 5 6 9 10 8 7 8 7 7 7 8 7 6 7 6 6 6 6 5 6 6 5 5 4 3 3 3 3 3 3 3 4 4 4
14 7 7 10 10 12 13 13 12 10 7 8 9 11 9 7 7 7 8 7 7 7 7 7 7 6 6 6 6 5 5 5 5 4 4 3 3 3 3 4 4 4 4 5
11 10 9 11 11 11 11 9 10 11 11 9 8 11 8 6 7 8 8 8 8 7 7 6 6 6 6 6 5 5 5 5 5 5 5 5 4 4 4 4 3 3 4 5
9 9 10 12 10 9 8 6 8 11 12 12 10 10 7 6 8 8 8 8 8 7 7 7 7 7 6 5 5 5 5 5 5 5 5 5 5 4 3 3 4 4 4 5
11 9 9 9 8 7 7 7 8 11 11 12 9 10 9 6 6 5 6 7 7 7 7 6 7 6 5 5 5 5 5 4 5 5 5 5 5 4 4 4 3 4 4 4
12 12 10 9 9 8 9 8 7 8 9 9 6 8 6 4 4 4 4 5 6 6 6 6 6 6 5 5 5 4 4 4 4 4 4 4 4 5 4 4 3 4 4 4
11 10 10 10 11 9 10 11 9 9 9 8 6 7 4 2 3 3 4 4 4 5 6 6 6 6 5 5 5 4 4 4 4 4 4 4 4 4 4 4 4 4 4 4
8 8 6 7 8 10 10 10 9 11 12 11 7 6 5 4 4 4 4 4 4 4 5 5 5 5 5 5 4 4 3 3 3 3 4 4 5 5 4 4 4 4 4 5
8 8 7 6 7 7 9 8 7 8 8 10 9 9 6 4 5 5 5 5 4 3 4 4 4 5 5 4 4 3 3 2 2 3 3 3 3 4 3 4 4 4 5 5
8 9 7 7 9 9 8 9 8 8 9 9 10 6 1 2 3 4 5 4 4 3 4 4 4 4 4 4 3 2 2 2 1 1 2 2 3 3 4 4 5 5 5 5
6 7 9 9 6 7 9 10 10 9 9 9 11 7 2 1 2 3 4 3 3 3 3 4 4 4 4 3 3 2 1 1 1 1 1 2 2 3 4 5 5 5 5 5
4 5 7 7 8 9 9 10 11 10 9 11 12 6 3 2 3 4 4 3 3 3 4 4 4 3 3 3 2 1 1 1 0 1 1 2 2 3 4 4 5 5 5 5
4 7 10 11 8 6 9 10 11 12 11 12 12 11 7 6 5 5 4 3 3 4 4 4 4 3 3 3 2 1 0 0 0 1 2 2 3 3 4 4 4 5 5 5
5 9 12 13 12 11 12 12 12 14 14 14 12 11 8 6 4 4 4 4 4 4 4 4 4 3 3 2 1 1 1 0 1 1 2 2 2 3 3 4 4 4 5 6
5 8 10 12 11 11 13 13 14 14 13 13 13 11 5 3 3 4 5 6 6 5 5 5 4 4 3 2 1 1 1 0 1 2 2 2 2 3 3 3 4 5 5 6
7 7 9 11 10 11 13 11 12 12 11 11 11 8 3 4 4 4 5 6 6 6 5 5 4 4 3 2 2 1 1 1 0 1 2 2 3 3 4 4 4 5 5 5
8 9 7 9 9 12 6 3 7 9 9 8 7 4 3 3 3 3 4 5 6 6 5 4 4 3 3 2 2 1 1 1 0 1 2 2 3 4 4 4 5 5 5 6
8 8 7 8 10 10 6 4 4 6 6 4 4 3 3 3 3 4 4 5 5 5 5 4 4 3 3 2 2 1 1 1 1 2 3 3 4 4 5 5 6 5 5 6
7 8 8 9 10 10 3 1 1 5 6 1 2 3 4 5 5 2 4 4 5 5 4 4 4 4 3 2 2 2 1 1 2 3 4 4 4 5 6 6 6 6 5 6
8 8 10 11 10 7 1 1 3 6 1 2 1 2 3 3 3 1 4 4 5 5 5 5 5 4 3 2 2 2 2 2 3 4 4 4 5 6 6 6 6 6 6 6
7 7 8 8 9 5 3 1 2 3 3 1 0 2 2 1 1 4 5 5 6 6 6 5 4 3 2 2 2 2 2 3 3 4 4 5 5 6 6 6 6 6 6 7
5 4 4 4 3 2 1 1 2 2 1 1 1 2 2 2 3 5 5 6 6 6 6 5 4 3 2 2 2 3 3 3 3 4 4 5 6 6 6 6 7 6 6 6
3 2 4 4 3 2 1 1 1 1 1 0 1 3 3 3 4 5 5 5 6 5 5 5 4 3 2 2 2 3 3 4 4 4 5 5 6 6 6 6 6 6 6 6
5 4 5 5 4 2 0 1 1 0 0 1 2 2 3 4 5 4 5 5 5 4 4 4 4 3 3 2 2 3 3 4 4 5 5 6 6 6 6 6 5 6 5 5
4 4 5 4 3 4 3 3 2 1 1 2 2 2 2 3 4 4 4 4 4 4 4 4 3 3 3 2 3 3 3 4 4 5 5 5 6 5 6 6 5 2 3 2
Wind_Direction
206 229 231 231 238 258 266 267 267 265 260 258 259 262 258 225 227 223 217 210 206 206 198 195 195 193 185 184 190 191 192 185 191 199 212 214 219 225 227 225 209 217 224 221
218 232 239 244 245 253 257 261 263 261 243 259 266 264 254 239 236 235 227 218 214 211 196 190 193 196 199 196 200 201 202 195 198 199 218 227 236 234 234 232 211 216 218 221
230 245 235 240 242 247 252 259 266 264 252 244 259 260 245 231 233 228 225 224 218 214 207 197 199 205 207 206 207 208 206 203 200 194 204 210 216 233 228 225 219 217 219 221
239 243 237 240 243 249 256 259 263 260 257 260 252 276 258 232 226 228 225 221 218 211 209 205 206 210 210 209 207 205 200 201 196 198 207 215 226 236 242 240 227 220 219 222
233 232 235 242 249 251 263 268 258 257 258 264 253 266 264 226 239 231 225 223 219 215 213 208 207 209 209 208 205 196 194 195 195 203 206 215 233 239 238 238 227 231 221 222
247 243 245 246 245 239 242 245 246 245 251 256 256 264 274 255 256 250 225 222 216 215 213 210 205 203 206 206 200 192 188 191 194 203 215 223 232 242 243 244 237 235 231 228
235 233 225 232 234 217 231 250 253 249 244 258 240 255 267 270 264 261 237 217 211 211 209 208 207 204 203 200 196 188 183 190 197 206 220 230 236 241 241 244 240 246 247 239
238 234 215 219 234 239 233 243 261 276 278 279 242 252 263 242 249 249 235 220 208 209 212 211 209 204 200 195 193 193 189 193 199 205 215 223 233 240 241 240 253 252 258 255
244 241 202 212 229 240 236 237 259 271 275 277 262 252 241 222 228 225 221 215 212 217 213 213 206 195 189 188 186 188 190 204 213 218 220 221 230 245 248 241 244 251 252 253
250 256 228 209 215 224 245 239 243 257 275 275 265 257 257 225 230 224 224 227 227 218 207 204 190 179 178 178 170 171 182 197 217 227 231 235 243 245 251 258 254 254 253 256
244 248 235 216 225 231 218 223 240 256 266 277 282 279 333 256 253 237 232 237 234 215 196 184 176 168 161 161 164 162 169 180 204 226 236 252 259 255 252 249 245 244 247 249
231 250 251 236 230 246 238 241 239 253 262 260 277 281 91 198 257 247 250 230 200 192 181 171 162 159 160 159 157 158 172 193 212 217 233 256 262 262 261 258 254 252 253 252
205 233 248 229 216 214 229 234 238 247 262 265 269 272 124 178 235 237 234 205 177 171 171 164 155 155 153 150 152 159 191 204 224 257 271 273 268 264 264 269 267 264 260 259
230 237 250 262 268 242 236 237 235 241 256 265 267 276 267 248 241 233 218 192 173 165 165 162 152 147 144 145 146 139 111 336 269 290 288 284 278 278 277 277 272 268 264 262
233 248 252 263 269 258 254 251 241 241 254 266 274 277 279 267 248 226 206 188 178 169 166 162 155 143 138 132 133 109 81 22 287 275 282 282 281 281 284 282 277 276 274 267
234 255 256 258 256 255 256 253 246 247 254 260 268 272 269 259 226 210 197 188 185 180 173 164 155 151 150 149 144 125 125 158 262 281 295 301 301 286 284 283 283 282 280 277
234 241 253 258 256 258 252 248 244 247 251 255 262 270 236 226 216 214 198 191 190 183 174 167 159 155 158 164 164 167 166 181 223 305 310 313 304 295 291 289 285 282 281 279
234 240 250 261 255 250 256 256 248 248 252 255 258 246 214 216 207 205 197 191 185 179 171 163 159 159 167 165 164 178 181 197 286 317 317 315 306 305 306 297 291 289 286 283
225 232 244 250 253 257 243 229 233 244 253 257 246 212 182 154 185 197 181 182 181 176 169 162 163 160 160 162 171 192 218 268 301 308 301 304 306 305 303 302 303 299 291 287
203 224 240 247 256 263 276 97 229 241 235 179 186 173 171 184 231 183 144 166 169 169 168 164 163 159 157 161 190 215 238 272 290 299 303 308 306 299 297 298 298 299 291 286
205 217 233 246 253 258 34 93 209 235 290 69 181 182 193 233 301 115 152 164 163 166 171 170 170 168 160 169 200 235 263 286 296 302 305 310 308 299 293 294 292 292 288 287
240 240 236 243 248 249 70 188 250 351 24 61 196 197 204 248 166 158 161 162 164 167 171 173 175 171 167 182 211 244 277 297 300 302 306 311 307 302 305 299 290 289 288 280
246 274 280 269 274 38 24 317 20 14 10 18 185 180 181 178 167 161 160 161 164 169 173 179 181 180 190 209 230 258 287 295 297 300 304 305 305 303 300 297 294 290 283 283
242 280 261 258 249 280 292 235 249 344 354 41 156 167 174 168 160 161 162 162 165 171 179 182 187 198 213 229 252 271 286 292 292 295 300 300 300 300 301 298 295 298 300 298
285 267 259 259 273 278 356 359 340 275 99 121 144 158 170 165 166 165 167 170 172 177 187 193 198 207 221 240 265 277 283 281 286 290 291 294 296 300 298 296 301 297 307 310
277 276 274 285 322 305 304 327 327 299 175 165 162 164 173 174 174 174 172 168 173 180 189 200 208 217 237 253 269 281 281 275 280 284 289 292 292 298 298 299 298 280 262 251
Height
1505 1503 1497 1494 1494 1493 1493 1494 1493 1491 1491 1494 1493 1492 1493 1497 1498 1499 1501 1503 1504 1506 1508 1509 1510 1511 1512 1512 1512 1513 1514 1514 1515 1516 1516 1517 1517 1518 1519 1519 1518 1519 1519 1520
1500 1497 1491 1491 1492 1493 1493 1494 1491 1490 1491 1494 1491 1490 1489 1493 1495 1497 1498 1500 1502 1504 1506 1507 1508 1509 1510 1510 1510 1511 1511 1512 1512 1513 1513 1514 1515 1515 1516 1516 1516 1516 1516 1517
1494 1489 1489 1491 1492 1494 1491 1491 1489 1490 1489 1490 1491 1489 1486 1488 1492 1494 1496 1497 1499 1501 1503 1504 1506 1507 1507 1508 1508 1508 1508 1509 1510 1510 1511 1512 1512 1513 1513 1513 1513 1513 1513 1514
1489 1487 1489 1490 1489 1489 1490 1485 1486 1488 1491 1488 1489 1491 1482 1483 1487 1490 1492 1494 1496 1498 1500 1502 1503 1504 1505 1505 1506 1506 1506 1506 1507 1507 1508 1509 1509 1510 1510 1510 1511 1511 1511 1511
1486 1485 1486 1487 1485 1485 1485 1484 1486 1486 1487 1488 1484 1489 1481 1480 1483 1484 1488 1490 1493 1495 1497 1498 1500 1501 1502 1503 1503 1503 1503 1504 1504 1505 1505 1506 1507 1508 1508 1508 1508 1508 1508 1508
1483 1483 1483 1482 1482 1483 1484 1485 1485 1484 1483 1492 1484 1487 1483 1476 1478 1480 1483 1487 1490 1492 1494 1495 1497 1498 1499 1500 1500 1500 1500 1501 1501 1502 1502 1503 1504 1504 1505 1505 1505 1505 1505 1505
1483 1479 1480 1481 1482 1482 1483 1487 1492 1492 1489 1486 1477 1482 1481 1475 1476 1479 1481 1485 1487 1490 1491 1492 1493 1494 1495 1496 1497 1498 1498 1498 1499 1499 1500 1500 1501 1501 1501 1501 1501 1502 1502 1502
1483 1480 1474 1476 1478 1478 1479 1482 1493 1498 1489 1478 1475 1479 1474 1474 1477 1480 1482 1484 1486 1487 1489 1490 1491 1491 1492 1493 1494 1495 1496 1496 1497 1497 1497 1498 1498 1499 1499 1498 1499 1498 1499 1499
1476 1476 1469 1472 1473 1473 1476 1476 1473 1481 1479 1482 1474 1472 1471 1473 1476 1478 1480 1482 1483 1485 1486 1487 1488 1489 1490 1491 1492 1493 1493 1494 1494 1495 1495 1495 1495 1496 1496 1495 1495 1495 1495 1496
1470 1477 1469 1470 1471 1472 1470 1470 1476 1481 1491 1489 1476 1473 1470 1470 1472 1474 1477 1479 1481 1483 1484 1485 1486 1487 1488 1489 1490 1491 1491 1491 1492 1493 1493 1493 1493 1493 1492 1492 1492 1492 1492 1492
1470 1476 1471 1470 1471 1470 1472 1473 1474 1473 1475 1485 1484 1474 1461 1466 1469 1472 1474 1477 1479 1481 1482 1484 1485 1486 1487 1488 1489 1489 1490 1490 1490 1491 1491 1490 1491 1491 1490 1489 1489 1488 1488 1488
1470 1472 1472 1467 1464 1464 1465 1467 1471 1480 1480 1476 1477 1474 1463 1467 1470 1472 1474 1476 1478 1480 1481 1482 1484 1485 1486 1487 1488 1488 1489 1489 1489 1489 1489 1488 1488 1488 1488 1487 1486 1486 1485 1485
1471 1475 1478 1472 1471 1467 1466 1465 1466 1469 1473 1473 1475 1471 1464 1467 1470 1472 1474 1475 1477 1479 1480 1482 1483 1484 1485 1486 1487 1487 1487 1487 1488 1488 1487 1487 1486 1485 1485 1484 1484 1483 1482 1482
1471 1471 1473 1474 1465 1459 1464 1463 1463 1467 1469 1468 1466 1464 1462 1463 1466 1470 1472 1474 1476 1478 1479 1481 1482 1483 1484 1485 1485 1486 1486 1486 1486 1486 1486 1485 1484 1483 1483 1482 1481 1480 1480 1479
1469 1467 1464 1460 1456 1456 1458 1459 1460 1462 1462 1463 1460 1459 1458 1460 1464 1468 1471 1473 1475 1477 1478 1480 1481 1482 1483 1484 1484 1485 1485 1485 1485 1484 1484 1483 1482 1481 1481 1480 1478 1478 1477 1476
1467 1466 1463 1461 1456 1455 1456 1455 1455 1456 1456 1457 1457 1457 1457 1461 1464 1467 1469 1472 1474 1476 1477 1479 1480 1481 1482 1483 1483 1483 1484 1484 1484 1483 1483 1482 1481 1480 1479 1478 1476 1475 1474 1473
1464 1466 1466 1461 1454 1455 1458 1451 1452 1452 1450 1453 1455 1454 1456 1460 1463 1466 1468 1471 1473 1475 1476 1478 1479 1480 1481 1482 1482 1483 1483 1483 1483 1482 1482 1481 1480 1479 1477 1476 1475 1473 1471 1470
1464 1464 1461 1459 1461 1469 1452 1445 1446 1449 1449 1449 1451 1453 1457 1461 1464 1466 1468 1469 1472 1474 1476 1477 1478 1479 1480 1481 1481 1482 1482 1482 1482 1481 1481 1480 1478 1477 1475 1474 1472 1470 1468 1467
1460 1462 1460 1459 1460 1455 1447 1447 1448 1451 1451 1451 1452 1454 1458 1462 1464 1465 1467 1469 1471 1473 1475 1476 1477 1479 1479 1480 1481 1481 1481 1481 1480 1480 1479 1478 1477 1475 1473 1472 1470 1467 1465 1464
1459 1459 1459 1457 1462 1461 1450 1447 1450 1452 1454 1453 1454 1456 1458 1461 1459 1461 1466 1468 1470 1472 1474 1475 1476 1478 1479 1479 1480 1480 1480 1480 1479 1478 1477 1476 1474 1473 1471 1469 1467 1465 1463 1461
1456 1457 1456 1455 1457 1449 1448 1450 1451 1456 1455 1455 1455 1457 1459 1460 1461 1464 1465 1467 1469 1471 1474 1475 1475 1477 1477 1478 1478 1479 1478 1478 1477 1476 1475 1474 1472 1470 1469 1466 1464 1463 1461 1459
1450 1450 1451 1450 1455 1454 1452 1451 1452 1454 1455 1456 1457 1458 1459 1461 1462 1463 1465 1467 1468 1471 1473 1474 1475 1475 1476 1477 1477 1477 1477 1476 1475 1474 1473 1471 1469 1468 1466 1464 1462 1460 1458 1457
1449 1449 1447 1448 1451 1453 1454 1454 1456 1456 1457 1457 1457 1458 1460 1461 1462 1463 1465 1466 1468 1470 1471 1473 1474 1474 1475 1475 1475 1475 1475 1474 1473 1472 1470 1468 1467 1465 1463 1461 1459 1457 1455 1454
1450 1452 1451 1451 1450 1452 1454 1455 1456 1457 1457 1457 1457 1458 1459 1460 1461 1463 1464 1466 1467 1469 1470 1471 1472 1473 1473 1473 1473 1473 1472 1471 1470 1469 1467 1466 1464 1462 1460 1458 1456 1455 1453 1451
1452 1452 1451 1451 1452 1453 1454 1455 1456 1456 1456 1457 1457 1458 1458 1459 1461 1462 1464 1465 1466 1468 1469 1470 1470 1471 1471 1471 1471 1471 1470 1469 1467 1466 1465 1463 1461 1459 1457 1455 1453 1451 1450 1448
1455 1455 1453 1451 1454 1455 1456 1456 1456 1456 1456 1456 1457 1457 1458 1459 1461 1462 1463 1464 1465 1466 1467 1468 1469 1469 1469 1469 1468 1468 1467 1466 1465 1463 1462 1460 1459 1457 1455 1452 1450 1448 1446 1444